CAPE
0 0 0 0 0 0 0 0 0 0 0 0 0 0 0 0 0 1 0 115 672 669 639 510 655 737 779 778 732 611 529 573 615 687 737 780 840 884 862 884 830 756 518 330 456 302 194 228 204
0 0 0 0 0 0 0 0 0 0 0 0 0 0 0 0 0 0 0 0 608 482 392 392 485 505 576 595 437 383 563 787 820 684 762 788 780 805 748 785 676 552 548 543 531 499 413 244 286
0 0 0 0 0 0 0 0 0 0 0 0 0 0 0 0 0 0 0 0 510 87 149 98 53 56 111 72 2 0 0 185 413 376 362 460 441 457 352 313 238 280 385 409 373 267 224 221 297
0 0 0 0 0 0 0 0 0 0 0 0 0 0 0 0 0 0 0 0 0 0 0 5 0 0 0 0 0 0 0 0 0 0 0 0 4 0 0 0 1 2 3 37 95 252 278 186 4
0 0 0 0 0 0 0 0 0 0 0 0 0 0 0 0 0 0 0 0 0 0 0 0 0 0 0 0 0 0 0 0 0 0 0 0 0 0 0 0 0 0 0 0 1 2 1 37 179
0 0 0 0 0 0 0 0 0 0 0 0 0 0 0 0 0 0 0 0 0 0 0 0 0 0 0 0 0 0 0 0 0 0 0 0 0 0 0 0 0 0 0 0 0 1 4 3 2
0 0 0 0 0 0 0 0 0 0 0 0 0 0 0 0 0 0 0 0 0 0 0 0 0 0 0 0 0 0 0 0 0 0 0 0 0 0 0 0 0 0 0 0 0 2 1 0 1
0 0 0 0 0 0 0 0 0 0 0 0 0 0 0 0 0 0 0 0 0 0 0 0 0 0 0 0 0 0 0 0 0 0 0 0 0 0 0 0 0 0 0 0 0 2 1 0 2
0 0 0 0 0 0 0 0 0 0 0 0 0 0 0 0 0 0 0 0 0 0 0 0 0 0 0 0 0 0 0 0 0 0 0 0 0 0 0 0 0 0 0 0 0 2 0 0 0
0 0 0 0 0 0 0 0 0 0 0 0 0 0 0 0 0 0 0 0 0 0 0 0 0 0 0 0 0 0 0 0 0 0 0 0 0 0 0 0 0 0 0 0 0 2 0 0 0
0 0 0 0 0 0 0 0 0 0 0 0 0 0 0 0 0 0 0 0 0 0 0 0 0 0 0 0 0 0 0 0 0 0 0 0 0 0 0 0 0 0 0 0 0 0 0 0 0
0 0 0 0 0 0 0 0 0 0 0 0 0 0 0 0 0 0 0 0 0 0 0 0 0 0 0 0 0 0 0 0 0 0 0 0 0 0 0 0 0 0 0 0 0 0 0 0 0
0 0 0 0 0 0 0 0 0 0 0 0 0 0 0 0 0 0 0 0 0 0 0 0 0 0 0 0 0 0 0 0 0 0 0 0 0 0 0 0 0 0 0 0 0 0 0 0 0
0 0 0 0 0 0 0 0 0 0 0 0 0 0 0 0 0 0 0 0 0 0 0 0 0 0 0 0 0 0 0 0 0 0 0 0 0 0 0 0 0 0 0 0 0 0 0 0 0
0 0 0 0 0 0 0 0 0 0 0 0 0 0 0 0 0 0 0 0 0 0 0 0 0 0 0 0 0 0 0 0 0 0 0 0 0 0 0 0 0 0 0 0 0 0 0 0 0
0 0 0 0 0 0 0 0 0 0 0 0 0 0 0 0 0 0 0 0 0 0 0 0 0 0 0 0 0 0 0 0 0 0 0 0 0 0 0 0 0 0 0 0 0 0 0 0 0
0 0 0 0 0 0 0 0 0 0 0 0 0 0 0 0 0 0 0 0 0 0 0 0 0 0 0 0 0 0 0 0 0 0 0 0 0 0 0 0 0 0 0 0 0 0 0 0 0
0 0 0 0 0 0 0 0 0 0 0 0 0 0 0 0 0 0 0 0 0 0 0 0 0 0 0 0 0 0 0 0 0 0 0 0 0 0 0 0 0 0 0 0 0 0 0 0 0
0 0 0 0 0 0 0 0 0 0 0 0 0 0 0 0 0 0 0 0 0 0 0 0 0 0 0 0 0 0 0 0 0 0 0 0 0 0 0 0 0 0 0 0 0 0 0 0 0
0 0 0 0 0 0 0 0 0 0 0 0 0 0 0 0 0 0 0 0 0 0 0 0 0 0 0 0 0 0 0 0 0 0 0 0 0 0 0 0 0 0 0 0 0 0 0 0 0
0 0 0 0 0 0 0 0 0 0 0 0 0 0 0 0 0 0 0 0 0 0 0 0 0 0 0 0 0 0 0 0 0 0 0 0 0 0 0 0 0 0 0 0 0 0 0 0 0
0 0 0 0 0 0 0 0 0 0 0 0 0 0 0 0 0 0 0 0 0 0 0 0 0 0 0 0 0 0 0 0 0 0 0 0 0 0 0 0 0 0 0 0 0 0 0 0 0
0 0 0 0 0 0 0 0 0 0 0 0 0 0 0 0 0 0 0 0 0 0 0 0 0 0 0 0 0 0 0 0 0 0 0 0 0 0 0 0 0 0 0 0 0 0 0 0 0
0 0 0 0 0 0 0 0 0 0 0 0 0 0 0 0 0 0 0 0 0 0 0 0 0 0 0 0 0 0 0 0 0 0 0 0 0 0 0 0 0 0 0 0 0 0 0 0 0
0 0 0 0 0 0 0 0 0 0 0 0 0 0 0 0 0 0 0 0 0 0 0 0 0 0 0 0 0 0 0 0 0 0 0 0 0 0 0 0 0 0 0 0 0 0 0 0 0
0 0 0 0 0 0 0 0 0 0 0 0 0 0 0 0 0 0 0 0 0 0 0 0 0 0 0 0 0 0 0 0 0 0 0 0 0 0 0 0 0 0 0 0 0 0 0 0 0
0 0 0 0 0 0 0 0 0 0 0 0 0 0 0 0 0 0 0 0 0 0 0 0 0 0 0 0 0 0 0 0 0 0 0 0 0 0 0 0 0 0 0 0 0 0 0 0 0
0 0 0 0 0 0 0 0 0 0 0 0 0 0 0 0 0 0 0 0 0 0 0 0 0 0 0 0 0 0 0 0 0 0 0 0 0 0 0 0 0 0 0 0 0 0 0 0 0
0 0 0 0 0 0 0 0 0 0 0 0 0 0 0 0 0 0 0 0 0 0 0 0 0 0 0 0 0 0 0 0 0 0 0 0 0 0 0 0 0 0 0 0 0 0 0 0 0
0 0 0 0 0 0 0 0 0 0 0 0 0 0 0 0 0 0 0 0 0 0 0 0 0 0 0 0 0 0 0 0 0 0 0 0 0 0 0 0 0 0 0 0 0 0 0 0 0
CIN
0 0 0 0 0 0 0 0 0 0 0 0 0 0 0 0 0 -21 0 -152 -55 -51 -63 -97 -70 -60 -40 -31 -37 -56 -68 -49 -38 -24 -18 -15 -6 -1 0 0 0 0 -1 -18 0 -13 -39 -16 -6
0 0 0 0 0 0 0 0 0 0 0 0 0 0 0 0 0 0 0 0 -81 -111 -136 -146 -120 -124 -97 -86 -126 -147 -88 -38 -29 -42 -23 -12 -6 -5 -7 -6 -3 -5 -6 -5 -3 -1 0 -11 -4
0 0 0 0 0 0 0 0 0 0 0 0 0 0 0 0 0 0 0 0 -128 -297 -266 -305 -366 -375 -315 -368 -95 0 0 -233 -125 -134 -136 -86 -87 -77 -94 -84 -96 -58 -13 -4 -3 -10 -14 -12 -3
0 0 0 0 0 0 0 0 0 0 0 0 0 0 0 0 0 0 0 0 0 0 0 -482 0 0 0 0 0 0 0 -14 -12 -12 -12 -11 -252 0 0 0 0 -7 -6 -205 -88 -5 -2 -19 -102
0 0 0 0 0 0 0 0 0 0 0 0 0 0 0 0 0 0 0 0 0 0 0 0 0 0 0 0 0 0 0 0 0 0 0 0 0 0 0 0 0 0 0 0 0 -1 0 -118 -22
0 0 0 0 0 0 0 0 0 0 0 0 0 0 0 0 0 0 0 0 0 0 0 0 0 0 0 0 0 0 0 0 0 0 0 0 0 0 0 0 0 0 0 0 0 0 0 0 0
0 0 0 0 0 0 0 0 0 0 0 0 0 0 0 0 0 0 0 0 0 0 0 0 0 0 0 0 0 0 0 0 0 0 0 0 0 0 0 0 0 0 0 0 0 0 0 0 0
0 0 0 0 0 0 0 0 0 0 0 0 0 0 0 0 0 0 0 0 0 0 0 0 0 0 0 0 0 0 0 0 0 0 0 0 0 0 0 0 0 0 0 0 0 0 0 0 0
0 0 0 0 0 0 0 0 0 0 0 0 0 0 0 0 0 0 0 0 0 0 0 0 0 0 0 0 0 0 0 0 0 0 0 0 0 0 0 0 0 0 0 0 0 0 0 0 0
0 0 0 0 0 0 0 0 0 0 0 0 0 0 0 0 0 0 0 0 0 0 0 0 0 0 0 0 0 0 0 0 0 0 0 0 0 0 0 0 0 0 0 0 0 0 0 0 0
0 0 0 0 0 0 0 0 0 0 0 0 0 0 0 0 0 0 0 0 0 0 0 0 0 0 0 0 0 0 0 0 0 0 0 0 0 0 0 0 0 0 0 0 0 0 0 0 0
0 0 0 0 0 0 0 0 0 0 0 0 0 0 0 0 0 0 0 0 0 0 0 0 0 0 0 0 0 0 0 0 0 0 0 0 0 0 0 0 0 0 0 0 0 0 0 0 0
0 0 0 0 0 0 0 0 0 0 0 0 0 0 0 0 0 0 0 0 0 0 0 0 0 0 0 0 0 0 0 0 0 0 0 0 0 0 0 0 0 0 0 0 0 0 0 0 0
0 0 0 0 0 0 0 0 0 0 0 0 0 0 0 0 0 0 0 0 0 0 0 0 0 0 0 0 0 0 0 0 0 0 0 0 0 0 0 0 0 0 0 0 0 0 0 0 0
0 0 0 0 0 0 0 0 0 0 0 0 0 0 0 0 0 0 0 0 0 0 0 0 0 0 0 0 0 0 0 0 0 0 0 0 0 0 0 0 0 0 0 0 0 0 0 0 0
0 0 0 0 0 0 0 0 0 0 0 0 0 0 0 0 0 0 0 0 0 0 0 0 0 0 0 0 0 0 0 0 0 0 0 0 0 0 0 0 0 0 0 0 0 0 0 0 0
0 0 0 0 0 0 0 0 0 0 0 0 0 0 0 0 0 0 0 0 0 0 0 0 0 0 0 0 0 0 0 0 0 0 0 0 0 0 0 0 0 0 0 0 0 0 0 0 0
0 0 0 0 0 0 0 0 0 0 0 0 0 0 0 0 0 0 0 0 0 0 0 0 0 0 0 0 0 0 0 0 0 0 0 0 0 0 0 0 0 0 0 0 0 0 0 0 0
0 0 0 0 0 0 0 0 0 0 0 0 0 0 0 0 0 0 0 0 0 0 0 0 0 0 0 0 0 0 0 0 0 0 0 0 0 0 0 0 0 0 0 0 0 0 0 0 0
0 0 0 0 0 0 0 0 0 0 0 0 0 0 0 0 0 0 0 0 0 0 0 0 0 0 0 0 0 0 0 0 0 0 0 0 0 0 0 0 0 0 0 0 0 0 0 0 0
0 0 0 0 0 0 0 0 0 0 0 0 0 0 0 0 0 0 0 0 0 0 0 0 0 0 0 0 0 0 0 0 0 0 0 0 0 0 0 0 0 0 0 0 0 0 0 0 0
0 0 0 0 0 0 0 0 0 0 0 0 0 0 0 0 0 0 0 0 0 0 0 0 0 0 0 0 0 0 0 0 0 0 0 0 0 0 0 0 0 0 0 0 0 0 0 0 0
0 0 0 0 0 0 0 0 0 0 0 0 0 0 0 0 0 0 0 0 0 0 0 0 0 0 0 0 0 0 0 0 0 0 0 0 0 0 0 0 0 0 0 0 0 0 0 0 0
0 0 0 0 0 0 0 0 0 0 0 0 0 0 0 0 0 0 0 0 0 0 0 0 0 0 0 0 0 0 0 0 0 0 0 0 0 0 0 0 0 0 0 0 0 0 0 0 0
0 0 0 0 0 0 0 0 0 0 0 0 0 0 0 0 0 0 0 0 0 0 0 0 0 0 0 0 0 0 0 0 0 0 0 0 0 0 0 0 0 0 0 0 0 0 0 0 0
0 0 0 0 0 0 0 0 0 0 0 0 0 0 0 0 0 0 0 0 0 0 0 0 0 0 0 0 0 0 0 0 0 0 0 0 0 0 0 0 0 0 0 0 0 0 0 0 0
0 0 0 0 0 0 0 0 0 0 0 0 0 0 0 0 0 0 0 0 0 0 0 0 0 0 0 0 0 0 0 0 0 0 0 0 0 0 0 0 0 0 0 0 0 0 0 0 0
0 0 0 0 0 0 0 0 0 0 0 0 0 0 0 0 0 0 0 0 0 0 0 0 0 0 0 0 0 0 0 0 0 0 0 0 0 0 0 0 0 0 0 0 0 0 0 0 0
0 0 0 0 0 0 0 0 0 0 0 0 0 0 0 0 0 0 0 0 0 0 0 0 0 0 0 0 0 0 0 0 0 0 0 0 0 0 0 0 0 0 0 0 0 0 0 0 0
0 0 0 0 0 0 0 0 0 0 0 0 0 0 0 0 0 0 0 0 0 0 0 0 0 0 0 0 0 0 0 0 0 0 0 0 0 0 0 0 0 0 0 0 0 0 0 0 0
Wind_Speed
23 23 19 16 15 14 11 12 11 11 13 14 15 15 15 16 16 14 16 13 14 16 17 18 18 19 19 18 19 19 19 18 18 19 19 19 20 21 21 22 21 19 20 21 21 20 20 19 19
22 20 16 15 16 12 13 12 9 11 11 12 14 15 17 15 16 14 12 14 12 14 16 17 18 19 19 19 19 19 19 19 19 19 20 21 21 20 21 22 23 22 21 20 23 22 21 21 18
20 17 15 15 15 13 10 8 8 10 11 12 14 16 15 15 15 14 14 14 12 15 16 17 17 18 19 18 18 19 20 19 19 20 20 21 22 22 23 24 24 25 25 25 26 24 24 24 22
18 16 15 17 13 15 10 6 8 9 12 14 12 15 15 15 13 13 14 14 14 15 16 16 17 18 18 17 18 18 19 19 20 20 21 21 22 22 23 24 25 26 26 26 27 28 28 29 25
15 15 17 16 15 11 8 7 9 11 12 14 13 14 14 14 14 14 15 15 16 18 17 16 17 18 18 17 17 18 19 19 20 20 21 21 22 23 24 24 25 26 27 28 28 29 30 31 30
17 15 18 15 14 10 10 9 10 11 13 14 14 13 13 13 13 15 15 16 17 18 19 20 18 17 17 17 18 18 18 19 20 20 21 21 22 23 24 25 26 27 27 28 29 31 31 32 32
17 17 18 15 9 10 11 13 12 13 12 15 12 13 12 12 13 14 15 16 18 19 20 21 21 16 16 17 18 18 18 19 19 19 20 21 22 23 24 24 25 27 27 28 30 30 32 30 29
17 17 15 13 8 12 12 15 13 13 13 13 14 12 10 10 13 13 15 16 18 20 21 22 21 18 15 16 18 18 18 18 19 19 19 20 21 22 24 24 25 26 28 29 30 30 30 30 29
15 19 17 14 11 13 14 15 16 15 12 13 14 13 11 11 12 13 15 17 18 19 21 21 21 21 15 15 16 17 17 18 19 19 19 20 20 21 23 24 25 26 28 28 29 29 29 30 30
18 19 17 18 15 14 14 16 14 13 12 13 13 12 12 12 12 12 14 16 17 19 20 21 21 22 19 15 16 17 17 17 19 20 19 19 20 19 21 23 25 26 27 28 28 28 28 30 27
18 20 15 15 14 14 14 15 15 12 13 10 7 8 10 12 12 12 14 15 17 18 20 21 21 21 21 20 18 17 18 18 19 19 19 21 19 19 21 24 24 25 26 28 29 29 28 29 27
19 18 16 15 17 16 16 14 14 14 15 11 6 8 10 11 11 12 13 15 16 18 19 20 20 21 21 22 21 19 19 19 20 20 20 21 21 20 20 21 22 24 24 27 28 28 28 27 27
20 17 16 16 17 16 16 16 16 14 9 10 9 9 9 10 11 12 13 14 15 17 19 20 20 21 20 21 21 20 20 20 20 21 20 21 23 23 22 23 23 22 22 25 27 27 27 25 23
17 16 16 18 19 17 17 17 16 13 6 8 9 9 8 8 10 12 13 14 15 16 18 19 20 20 21 21 21 20 20 21 21 21 21 21 23 24 25 25 26 22 21 23 24 25 23 21 18
13 16 18 19 18 18 16 19 17 13 5 6 8 8 8 9 10 11 13 14 14 15 17 18 19 20 21 21 21 21 21 22 21 22 21 22 24 24 25 26 27 24 20 22 24 24 19 16 16
17 17 19 18 16 17 17 20 16 7 5 6 7 8 8 10 10 11 12 13 13 14 16 17 19 21 21 21 20 20 21 21 21 21 23 24 25 25 25 26 27 27 21 23 24 25 23 21 20
19 20 19 19 17 17 17 20 16 8 4 5 7 7 8 10 11 11 11 12 12 13 15 17 19 20 20 20 21 20 21 21 22 23 24 25 26 26 27 27 27 27 25 24 26 28 24 25 27
21 20 19 20 17 17 20 21 17 8 7 5 8 8 8 9 9 9 10 10 12 13 15 17 18 20 20 20 20 20 21 22 24 24 25 26 27 27 27 27 28 28 28 29 29 28 27 27 28
16 18 18 19 16 20 22 24 19 11 9 9 10 8 8 8 8 8 10 11 12 14 15 17 18 19 20 20 21 21 23 23 24 25 26 27 28 27 27 27 28 29 29 29 29 28 29 29 29
19 20 20 20 18 21 23 24 23 16 10 9 9 7 7 8 8 9 10 10 12 14 15 16 17 18 20 20 21 21 22 22 24 26 27 28 28 27 27 28 28 29 29 30 30 30 30 28 29
19 20 20 21 21 22 25 27 21 17 15 14 10 7 6 6 6 7 8 10 12 13 14 15 17 18 20 21 21 22 22 23 26 28 27 28 28 26 27 28 28 29 29 29 30 30 30 30 29
20 16 18 21 23 26 21 30 21 16 16 11 7 5 6 6 7 7 9 11 12 13 14 15 16 18 20 22 23 24 25 27 27 27 27 28 27 27 27 28 29 30 30 31 30 30 30 29 31
18 15 18 20 23 25 23 26 23 15 14 10 7 6 8 6 6 6 9 11 12 13 14 15 17 19 21 22 24 25 27 28 27 27 28 28 27 27 28 29 30 31 31 31 32 32 32 30 29
10 15 18 20 23 30 23 22 26 17 15 12 9 7 7 6 6 8 9 11 12 14 15 16 19 21 22 23 25 27 29 29 29 28 28 29 28 29 30 30 32 33 34 34 34 33 33 32 31
14 16 26 29 28 30 22 23 24 21 18 15 7 7 6 5 6 8 10 11 13 15 17 18 20 22 23 25 28 29 29 29 29 29 29 31 31 31 33 33 35 35 35 36 36 35 35 34 34
14 17 23 32 31 30 23 29 25 22 21 17 7 3 5 7 9 9 10 12 15 17 18 19 21 24 26 28 30 29 29 29 29 30 31 32 33 33 33 34 36 36 37 37 36 36 36 35 36
17 20 19 24 27 33 28 27 25 20 18 12 4 4 6 9 10 10 12 14 16 18 19 21 23 26 28 29 29 29 29 30 31 32 32 33 34 35 36 36 37 38 37 37 38 38 39 39 39
19 16 23 23 31 34 29 28 24 17 14 10 7 7 9 10 11 14 18 20 22 22 23 22 24 28 29 28 28 29 30 31 32 33 35 35 36 37 37 39 39 40 40 40 40 41 40 41 41
21 23 22 21 24 30 33 27 22 20 11 10 10 10 10 12 16 18 20 23 25 25 24 26 29 30 30 30 31 32 34 34 35 36 37 38 39 39 39 40 41 42 43 42 42 43 43 43 43
20 22 20 26 27 25 27 31 23 21 15 11 13 12 14 15 17 20 21 24 27 27 27 29 30 32 33 36 38 39 41 42 43 43 43 42 43 42 41 42 43 44 45 44 44 45 44 45 46
Wind_Direction
280 281 302 310 304 311 320 322 344 349 356 353 3 19 24 4 3 22 52 327 27 45 66 47 40 34 30 27 24 22 19 19 16 11 7 4 1 356 353 351 350 347 341 337 337 337 339 334 329
284 293 311 311 297 307 313 327 350 356 20 28 0 4 357 7 26 39 17 295 8 21 41 41 35 31 29 26 24 22 18 15 14 12 8 5 3 2 358 355 349 347 343 340 330 327 329 327 331
291 305 304 299 297 305 324 342 18 12 349 334 343 355 7 16 12 27 320 329 8 9 32 41 36 28 24 26 28 27 22 21 18 14 11 7 4 360 354 351 347 341 338 334 329 326 321 318 320
300 304 310 291 300 303 326 12 26 12 331 324 352 344 1 352 12 17 342 348 347 3 18 30 31 27 28 29 30 26 21 19 17 13 12 9 6 3 359 354 349 342 336 332 327 323 319 310 312
303 301 286 287 292 310 343 25 350 331 321 324 349 349 2 356 23 351 335 338 348 353 7 19 25 26 31 33 31 25 21 19 18 16 14 14 11 9 4 359 351 342 337 333 331 324 317 311 310
285 297 282 284 292 308 320 334 330 320 314 325 347 356 5 3 12 340 342 340 344 354 356 3 16 23 31 34 33 29 23 21 20 19 18 17 15 11 4 357 347 342 338 333 327 324 322 315 310
280 283 282 288 299 302 302 300 301 308 328 326 4 359 13 1 6 349 354 350 350 348 351 359 7 27 35 36 33 30 29 27 24 23 20 18 14 12 4 355 351 344 341 339 336 332 327 326 322
284 284 284 290 294 294 292 286 297 311 323 344 347 7 24 12 20 4 349 350 352 353 353 356 8 22 39 41 39 38 35 32 27 24 20 20 18 15 3 357 352 351 350 347 348 347 343 340 332
286 274 274 284 286 286 279 284 294 314 335 338 341 356 15 34 20 359 346 341 347 352 355 360 6 16 43 46 42 40 39 33 26 22 19 17 17 16 7 1 360 359 1 2 1 358 354 350 346
269 269 273 269 276 282 282 287 309 317 331 336 358 1 18 17 11 4 351 344 343 350 353 1 7 15 25 39 35 33 32 29 23 22 23 18 11 14 8 4 2 4 6 8 8 7 5 1 355
267 265 271 273 280 281 288 298 305 328 331 354 20 18 16 19 16 5 350 344 345 352 356 2 8 14 18 21 25 28 29 31 27 30 32 23 19 15 8 359 2 5 7 7 8 8 10 7 2
263 266 269 273 273 282 291 304 312 322 334 4 42 29 12 15 19 2 349 342 346 353 356 3 8 12 15 18 23 30 29 27 21 23 29 24 16 15 11 8 7 6 9 8 9 10 13 13 13
260 267 274 276 277 286 294 301 311 326 10 19 19 7 21 22 18 358 345 346 353 352 356 2 8 9 13 15 19 21 19 18 14 11 20 16 6 3 5 3 5 7 10 9 8 11 16 20 24
265 271 277 275 276 287 293 303 316 336 28 9 356 4 20 31 16 359 345 338 345 356 359 4 8 11 12 10 12 14 13 11 8 4 9 10 5 359 353 355 356 6 12 11 11 14 19 23 27
271 274 275 275 280 289 303 302 315 341 50 9 352 3 12 14 7 357 344 337 350 359 5 5 8 8 8 11 14 14 12 7 6 2 6 5 359 356 354 354 353 0 7 7 8 11 20 23 23
268 276 274 281 287 295 304 304 323 20 35 360 351 357 356 355 2 355 348 344 358 3 2 3 4 4 6 8 10 12 10 7 3 2 360 357 356 354 352 352 353 355 3 1 1 3 9 12 14
268 269 274 282 287 299 302 307 326 360 16 357 338 343 345 350 355 356 351 355 0 359 359 358 358 360 4 8 10 12 9 5 0 358 357 354 352 351 349 350 349 352 355 356 355 356 3 3 1
264 270 279 282 291 298 302 305 323 342 344 338 330 330 335 344 351 360 2 3 359 358 359 358 359 360 1 4 6 4 2 360 356 354 353 351 349 347 348 348 347 346 345 345 346 350 355 357 355
278 279 284 290 302 302 302 303 314 324 316 319 322 323 328 341 353 358 355 352 355 356 358 357 358 0 1 2 1 0 357 354 354 354 352 348 346 346 346 345 344 345 343 344 344 346 346 348 351
279 281 286 294 302 305 308 307 313 322 312 307 314 317 325 337 344 346 347 351 352 353 353 357 360 1 1 2 2 2 359 0 358 354 350 349 349 349 349 348 346 346 344 342 341 341 342 344 346
285 284 288 294 303 308 310 306 315 319 318 317 317 318 326 333 346 353 356 355 352 351 353 356 358 360 358 358 358 357 357 354 351 348 347 347 347 350 349 348 347 346 345 343 342 341 339 337 338
284 298 300 301 301 297 316 299 314 319 321 320 319 318 328 340 347 347 347 346 347 350 355 356 356 355 355 355 352 351 350 347 346 346 346 345 346 347 347 346 345 343 342 339 339 339 337 336 332
295 308 307 308 303 304 306 305 313 318 312 312 311 316 325 333 339 344 342 345 349 352 352 351 349 348 349 350 349 347 343 342 342 342 342 342 343 343 343 341 340 338 337 335 333 332 331 331 328
316 312 313 312 307 298 306 305 311 317 314 308 305 307 319 326 336 341 344 349 348 347 346 345 343 343 344 345 343 341 339 338 337 337 337 336 336 335 335 335 333 331 330 328 328 327 325 324 323
305 306 297 297 298 298 313 307 307 316 318 317 287 297 315 333 343 341 340 340 341 340 338 336 338 338 339 338 337 336 335 335 334 334 332 331 330 329 328 328 326 325 324 323 322 321 320 319 317
297 302 297 294 296 301 310 303 313 319 317 318 314 313 332 333 336 338 340 338 335 334 333 334 334 333 332 331 331 332 332 332 331 330 329 327 326 324 324 323 323 322 321 319 319 317 316 315 312
300 296 308 304 306 301 303 308 312 320 323 332 339 323 324 329 335 339 338 333 332 331 329 329 331 331 330 329 329 329 328 328 326 325 324 323 322 321 321 320 319 319 318 316 315 313 311 309 307
299 308 302 304 299 299 306 307 307 318 321 330 327 319 325 331 336 335 330 327 324 324 326 328 328 327 328 328 328 328 326 325 322 321 320 319 318 317 316 316 316 315 314 313 310 308 307 305 304
292 293 300 304 301 300 302 307 317 315 310 312 311 318 324 329 329 330 333 332 331 330 327 325 325 325 326 325 324 322 321 320 318 316 314 314 313 313 311 312 312 311 310 309 307 305 303 302 300
295 293 291 293 297 300 301 299 315 318 309 309 315 320 325 329 329 330 333 334 334 334 332 331 332 330 329 326 325 323 321 318 314 312 310 309 308 308 308 308 309 309 308 307 305 303 302 300 298